Weather in Stockton

United States     37°55′16″N   121°15′41″W
temp.,
°C
wind,
m/s
gust,
m/s
humid.,
%
clouds,
%
prec.,
mm/h
press.,
hPa
HPBL,
m
16 may, sun
sun1623:00+16wnw3559100 0.0 1010227
02:00+13nw237185 0.0 1010181
05:00+13wsw1277100 0.1 1011221
08:00+15ssw116838 0.0 1013386
11:00+22wsw124377 0.0 1012962
14:00+27w23320 0.0 10111588
17:00+28wnw43280 0.0 10091693
20:00+21wnw35430 0.0 1011259
17 may, mon
mon1723:00+15nw23634 0.0 1012187
02:00+13n02703 0.0 1013160
05:00+12n12770 0.0 1014150
08:00+14ene01650 0.0 1016373
11:00+22w12370 0.0 1015875
14:00+28w23230 0.0 10131377
17:00+28w542236 0.0 10121342
20:00+17wsw5854100 0.0 1013264
18 may, tue
tue1823:00+14wsw356348 0.0 1015178
02:00+13wsw35670 0.0 1015150
05:00+11w23730 0.0 101694
08:00+15wnw22570 0.0 1017295
11:00+23w23290 0.0 1016939
14:00+29w45160 0.0 10131849
17:00+27wsw66180 0.0 10121279
20:00+16wsw813310 0.0 1013376
19 may, wed
wed1923:00+13wsw612500 0.0 1014381
02:00+11sw712590 0.0 1014419
05:00+11sw712580 0.0 1015488
08:00+13wsw684832 0.0 1015643
11:00+19wsw45260 0.0 10141297
14:00+24wsw55180 0.0 10121879
17:00+21sw87260 0.0 10111187
20:00+14wsw812440 0.0 1011450
20 may, thu
thu2023:00+11wsw611580 0.0 1013434
02:00+10sw610600 0.0 1013495
05:00+9ssw48640 0.0 1014379
08:00+11w35483 0.0 1016715
11:00+17wnw34250 0.0 10151983
14:00+20nw462042 0.0 10133036
17:00+20n582164 0.0 10123180
20:00+17w563035 0.1 10121065